Wind_Speed
30 31 32 32 34 34 34 35 36 36 36 37 38 38 39 40 40 41 42 43 44 45 46 47 48 49 50 50 50 50 51 52 52 51 52 52 52 52 52 52 53 53 53
30 33 33 34 35 36 36 36 37 38 39 40 40 39 39 40 41 42 43 44 45 46 47 48 49 50 51 51 52 52 53 54 54 54 54 54 54 53 53 53 54 54 54
31 33 35 35 36 38 39 38 39 40 40 41 41 41 41 42 42 44 45 46 47 47 48 48 49 50 51 52 53 53 54 55 55 55 54 54 54 54 54 54 55 55 55
32 33 35 37 37 38 40 41 41 41 41 42 43 44 44 45 45 45 46 47 48 48 48 49 50 51 51 52 52 53 54 54 54 54 54 54 54 54 55 55 56 56 56
32 33 34 37 37 39 40 41 43 43 43 44 44 45 45 46 47 47 48 48 49 49 51 51 51 51 51 52 52 53 53 54 54 55 54 54 54 54 55 56 56 56 56
32 34 35 36 38 40 41 42 43 43 44 45 46 46 46 47 47 48 49 50 50 51 51 51 51 51 52 52 52 53 54 54 55 55 56 56 55 56 56 56 56 57 56
33 35 36 37 39 41 42 42 43 44 45 46 46 47 47 48 49 49 50 51 51 51 52 52 52 52 52 52 53 53 54 55 56 56 56 56 56 57 57 57 57 57 57
36 37 37 39 40 41 42 43 44 45 47 47 48 49 49 50 51 51 52 53 53 53 53 53 53 53 54 54 54 55 55 56 57 57 57 57 57 57 57 57 57 56 55
38 39 39 41 42 43 44 45 46 47 48 49 50 51 51 52 52 53 53 53 53 52 52 53 53 54 54 55 56 56 56 56 56 56 56 56 56 56 56 56 55 55 55
39 40 41 42 44 45 46 47 48 49 49 50 51 51 51 52 52 53 53 53 52 52 52 53 54 54 55 56 56 56 55 55 55 55 55 55 55 55 55 54 54 54 54
41 41 42 44 45 46 47 48 48 49 50 50 51 51 52 52 52 52 52 53 52 52 53 53 54 55 55 55 55 55 54 55 55 55 55 55 54 54 53 53 53 53 53
42 43 43 44 45 46 47 47 48 49 50 50 50 51 51 51 51 52 52 53 53 53 53 54 54 54 55 55 54 54 54 54 54 54 54 54 53 53 53 53 53 53 52
42 42 43 44 45 46 47 48 48 48 49 50 50 50 50 50 50 51 51 52 52 53 53 54 54 54 54 54 53 53 54 53 53 53 53 53 53 52 52 52 53 52 51
42 43 44 44 45 46 47 47 47 47 48 48 49 49 49 49 49 50 51 51 52 52 53 53 53 52 52 52 52 52 52 52 52 52 52 51 51 50 51 51 52 51 50
43 43 44 44 45 46 46 46 46 46 47 48 48 49 49 49 49 50 50 50 51 51 51 51 51 51 50 50 50 50 51 51 51 50 50 49 49 49 49 49 49 49 48
43 43 44 44 45 45 45 46 47 47 47 47 48 49 48 49 49 49 49 50 50 50 51 50 50 49 49 49 49 49 49 49 49 49 49 48 48 48 47 47 47 46 45
44 44 44 44 44 44 46 47 47 47 47 47 48 48 48 48 49 49 49 50 50 50 50 49 48 47 48 48 48 48 48 47 47 47 46 46 46 45 45 44 44 43 42
45 45 45 45 45 45 46 46 46 46 46 46 46 47 48 48 48 48 48 49 48 48 48 47 46 46 46 46 46 46 46 45 44 44 43 43 43 42 41 41 40 40 39
46 46 46 46 46 46 46 46 46 46 45 46 46 46 46 46 46 47 47 47 46 45 45 44 44 44 44 44 44 43 42 42 41 40 40 40 39 38 38 37 37 37 37
45 45 45 45 45 45 45 45 45 44 45 45 45 45 45 45 45 45 45 44 43 42 42 41 41 42 42 41 41 40 39 38 38 38 38 37 36 36 35 35 35 35 35
44 44 44 44 44 44 44 44 44 43 43 43 43 43 43 43 43 43 43 42 41 40 40 39 39 40 39 39 38 38 38 37 37 37 35 35 34 34 33 33 33 33 33
43 43 43 43 43 42 42 42 42 42 42 42 42 42 42 42 41 41 40 40 39 39 38 38 38 37 37 37 36 36 36 36 35 34 33 33 33 32 31 31 31 31 30
42 42 42 42 42 42 42 41 41 41 41 40 40 40 40 40 39 38 37 37 36 36 36 36 35 35 35 34 35 34 34 33 33 32 32 31 30 30 30 29 29 28 27
41 41 40 40 40 40 40 39 39 39 39 39 39 38 38 38 37 36 35 35 35 34 34 33 32 32 32 32 32 32 31 31 30 29 29 28 28 28 28 28 27 26 25
39 39 38 38 38 38 38 38 38 37 37 37 37 37 36 35 34 34 34 33 33 32 32 31 31 31 31 30 30 30 30 29 28 27 27 27 27 27 26 25 24 23 22
37 37 37 37 37 37 36 36 35 34 34 34 34 34 33 33 32 32 31 31 31 30 30 30 31 30 29 28 28 28 27 27 26 26 26 25 25 24 23 23 22 21 20
Wind_Direction
241 242 244 245 245 248 250 253 254 257 259 260 262 264 265 265 265 267 270 272 273 275 275 276 277 277 277 277 278 278 279 280 281 281 282 281 281 282 282 283 283 283 284
248 247 248 248 250 251 252 255 257 260 261 262 265 266 266 267 268 270 272 273 274 276 277 278 278 278 278 278 278 279 279 280 281 281 282 282 282 282 282 282 282 283 283
256 255 253 252 254 255 256 258 259 261 262 263 264 265 266 268 270 271 272 274 275 276 277 278 278 278 278 278 279 279 280 280 280 281 281 281 282 282 282 282 282 283 283
261 261 259 257 259 260 260 260 261 262 263 263 264 266 267 269 271 272 273 274 275 276 277 278 278 278 278 279 279 280 280 280 280 280 280 280 281 282 282 282 282 283 283
264 265 263 260 261 261 261 262 263 264 264 265 267 268 269 270 272 273 274 275 276 276 277 278 278 279 279 279 280 280 280 280 280 280 280 280 281 282 282 282 283 283 284
265 266 265 262 262 263 264 264 265 265 266 267 268 269 270 272 273 275 276 276 276 277 277 277 278 279 280 280 280 281 281 281 281 281 281 281 281 282 282 283 284 283 283
266 267 265 264 265 265 266 266 265 266 267 268 269 271 272 273 274 275 275 276 277 277 277 278 278 279 280 280 280 281 282 283 282 282 282 282 282 282 283 284 284 283 283
268 268 268 269 267 266 266 266 267 267 269 270 271 271 272 273 274 275 276 276 276 277 278 278 279 279 280 280 280 281 282 283 282 282 282 282 282 283 283 283 283 283 283
270 271 271 271 270 269 268 268 269 269 269 270 271 272 272 273 274 275 275 276 276 277 278 279 280 281 281 282 282 282 282 283 283 283 283 283 283 284 284 284 283 283 283
274 274 273 272 271 270 269 269 269 269 270 271 271 271 273 274 274 275 276 276 277 278 279 279 280 280 281 282 282 283 283 283 283 283 284 284 284 284 284 284 284 284 283
275 275 274 274 272 271 271 271 271 270 271 272 272 272 273 274 275 276 276 277 278 278 279 279 280 281 281 282 282 282 282 282 283 283 284 284 284 284 283 283 283 284 283
277 277 276 275 274 273 273 273 273 273 272 272 272 273 274 274 275 276 277 278 278 279 279 280 281 281 281 282 282 282 282 283 283 283 283 283 283 283 282 282 283 284 283
279 278 278 277 277 275 274 274 275 274 274 273 273 274 274 275 276 277 278 279 279 279 280 280 281 281 281 281 282 282 283 283 284 283 283 283 283 282 282 282 282 283 283
278 278 278 278 277 277 276 276 276 276 276 276 275 275 275 276 277 278 278 279 279 280 281 281 282 282 281 282 282 282 282 283 284 283 283 282 282 282 282 282 282 282 282
279 279 279 279 278 278 278 278 277 277 277 277 277 276 276 276 277 278 279 279 280 281 281 282 282 281 281 281 281 282 283 283 284 283 283 282 282 281 281 282 282 281 282
280 280 280 280 279 278 278 277 277 278 278 277 277 277 277 278 278 278 279 279 280 281 281 281 281 280 280 281 282 283 283 284 284 284 283 283 283 282 282 282 282 282 282
281 281 281 281 280 279 279 278 278 277 277 277 278 278 278 278 279 279 279 280 280 280 280 280 280 281 282 282 283 283 284 284 284 284 283 283 283 283 282 281 281 281 281
281 281 281 281 280 280 280 280 279 278 277 277 278 279 279 279 280 280 280 280 280 280 280 281 281 281 282 283 283 284 284 283 283 283 283 284 284 283 283 282 281 281 281
281 281 281 281 280 280 281 280 280 278 277 277 278 278 279 279 280 280 280 280 280 280 280 280 281 282 282 282 283 283 283 282 282 282 283 284 284 284 283 282 282 281 281
281 281 280 280 280 280 280 280 280 279 278 278 278 278 279 280 280 280 280 280 280 279 280 280 281 281 282 282 281 282 282 282 282 283 283 283 284 284 283 283 283 283 282
280 280 280 280 280 280 280 280 279 279 279 279 279 279 280 280 280 280 279 279 279 278 279 280 280 281 281 281 281 281 282 283 283 283 283 283 284 284 284 285 285 285 285
281 280 279 279 279 279 279 279 279 279 279 279 279 279 279 279 280 279 278 277 277 278 278 279 279 280 279 279 280 281 282 282 283 282 282 284 284 284 284 285 286 286 286
281 280 280 279 279 279 280 279 279 279 278 277 278 278 279 279 279 278 277 277 277 277 278 278 278 279 279 280 282 283 282 283 283 282 282 283 283 283 284 285 286 286 285
282 282 281 280 279 278 278 278 278 278 277 278 278 278 279 279 278 277 276 275 276 276 277 277 278 280 280 281 282 282 282 282 282 281 281 282 282 283 283 283 283 284 284
282 282 281 280 279 279 279 279 279 278 277 277 277 277 278 278 277 276 275 275 275 275 276 276 277 279 280 280 281 281 281 280 280 280 281 281 282 284 283 282 281 281 283
283 282 281 281 280 279 279 279 278 278 277 276 276 276 276 277 277 276 275 275 274 274 275 276 278 278 278 279 280 280 280 279 279 280 280 281 282 283 283 281 279 279 281
Height
5685 5687 5690 5692 5695 5697 5699 5701 5702 5703 5704 5705 5705 5705 5705 5705 5705 5705 5704 5704 5703 5702 5701 5700 5698 5697 5695 5693 5692 5690 5688 5686 5684 5683 5680 5678 5675 5673 5670 5667 5665 5662 5660
5679 5681 5683 5685 5687 5688 5690 5692 5693 5694 5695 5695 5695 5695 5695 5695 5695 5694 5694 5693 5691 5690 5689 5687 5686 5684 5682 5680 5678 5676 5674 5672 5670 5669 5666 5664 5661 5659 5656 5653 5650 5648 5645
5672 5673 5674 5676 5678 5679 5681 5682 5683 5684 5684 5685 5685 5684 5684 5684 5683 5682 5682 5680 5679 5677 5676 5674 5672 5671 5669 5666 5664 5662 5660 5657 5655 5653 5652 5649 5647 5644 5642 5639 5636 5634 5631
5664 5664 5665 5667 5668 5669 5671 5672 5672 5673 5673 5673 5673 5673 5672 5672 5671 5670 5669 5668 5666 5665 5663 5661 5659 5657 5655 5652 5650 5648 5645 5643 5640 5638 5637 5634 5632 5629 5627 5624 5622 5619 5616
5655 5656 5656 5657 5658 5659 5659 5660 5661 5661 5661 5661 5661 5661 5660 5659 5658 5657 5656 5654 5653 5651 5649 5647 5645 5643 5641 5639 5636 5633 5631 5628 5626 5623 5622 5619 5617 5615 5612 5609 5607 5604 5601
5646 5646 5647 5647 5647 5648 5648 5648 5649 5649 5649 5649 5648 5648 5647 5646 5645 5644 5642 5641 5639 5637 5635 5633 5631 5629 5627 5624 5622 5619 5616 5614 5611 5609 5606 5604 5602 5599 5596 5593 5591 5589 5586
5636 5636 5636 5636 5636 5636 5636 5636 5636 5636 5636 5636 5635 5634 5634 5633 5632 5630 5628 5627 5625 5623 5621 5619 5617 5614 5612 5610 5607 5605 5602 5599 5596 5594 5591 5588 5586 5583 5580 5578 5574 5571 5569
5625 5625 5625 5624 5624 5624 5624 5624 5623 5623 5623 5622 5621 5621 5620 5619 5618 5616 5614 5612 5610 5608 5606 5604 5602 5600 5597 5595 5593 5590 5587 5584 5581 5578 5576 5573 5570 5567 5564 5561 5558 5555 5553
5614 5613 5612 5612 5612 5611 5611 5611 5610 5609 5609 5608 5607 5606 5605 5604 5603 5601 5599 5597 5596 5594 5591 5589 5587 5585 5582 5580 5577 5575 5572 5569 5565 5562 5559 5557 5554 5550 5547 5544 5542 5539 5537
5602 5601 5600 5599 5598 5598 5597 5597 5596 5595 5595 5594 5593 5592 5591 5589 5588 5586 5584 5582 5581 5579 5577 5574 5572 5569 5566 5563 5561 5558 5556 5553 5550 5547 5544 5541 5537 5534 5531 5528 5526 5523 5520
5589 5588 5587 5586 5584 5583 5583 5582 5581 5580 5580 5579 5578 5577 5576 5574 5573 5571 5569 5567 5566 5564 5562 5560 5557 5554 5551 5548 5545 5542 5539 5536 5534 5531 5528 5525 5522 5519 5516 5513 5510 5508 5505
5576 5575 5573 5571 5570 5569 5568 5567 5566 5565 5564 5563 5563 5562 5560 5559 5558 5556 5554 5552 5550 5548 5547 5544 5541 5538 5535 5532 5529 5526 5523 5520 5518 5515 5512 5509 5507 5504 5501 5498 5495 5492 5490
5563 5561 5559 5558 5556 5554 5553 5552 5551 5550 5549 5548 5547 5547 5545 5544 5542 5540 5539 5537 5534 5532 5530 5528 5525 5522 5519 5516 5514 5510 5507 5504 5502 5499 5496 5494 5491 5488 5486 5483 5481 5478 5475
5549 5548 5546 5544 5542 5540 5539 5538 5537 5535 5534 5533 5532 5531 5530 5529 5527 5525 5523 5521 5519 5516 5514 5512 5509 5506 5504 5501 5498 5495 5492 5489 5486 5484 5481 5479 5476 5473 5471 5468 5466 5464 5461
5536 5534 5532 5529 5527 5526 5524 5523 5522 5521 5519 5518 5517 5516 5515 5514 5512 5510 5507 5506 5503 5501 5498 5496 5494 5491 5489 5486 5483 5481 5478 5475 5472 5469 5466 5464 5461 5459 5456 5454 5451 5449 5447
5522 5520 5518 5516 5514 5512 5511 5509 5508 5507 5505 5503 5502 5501 5500 5498 5497 5495 5492 5490 5488 5486 5484 5482 5479 5477 5474 5472 5469 5467 5464 5461 5457 5454 5452 5449 5447 5444 5442 5439 5437 5434 5432
5508 5506 5504 5502 5500 5498 5496 5495 5494 5493 5491 5489 5488 5486 5485 5483 5482 5480 5478 5476 5474 5471 5469 5467 5465 5463 5460 5458 5455 5452 5450 5446 5443 5441 5438 5435 5433 5430 5428 5426 5423 5421 5419
5494 5492 5490 5488 5486 5484 5482 5481 5479 5478 5477 5476 5474 5472 5470 5468 5467 5465 5463 5461 5459 5457 5455 5453 5451 5449 5446 5444 5441 5438 5436 5433 5430 5428 5425 5423 5420 5417 5415 5413 5411 5409 5407
5480 5478 5476 5474 5472 5470 5468 5466 5465 5464 5462 5461 5460 5458 5456 5454 5452 5450 5448 5446 5445 5443 5441 5439 5437 5435 5433 5430 5428 5425 5423 5420 5418 5416 5413 5411 5408 5406 5404 5402 5400 5398 5396
5465 5463 5461 5459 5457 5455 5453 5452 5450 5449 5448 5447 5445 5444 5442 5440 5438 5436 5434 5432 5431 5429 5427 5426 5424 5422 5420 5417 5415 5413 5411 5408 5406 5404 5402 5399 5397 5395 5393 5391 5389 5387 5385
5451 5449 5447 5445 5443 5441 5439 5438 5436 5435 5434 5432 5431 5429 5428 5426 5424 5423 5421 5419 5418 5416 5415 5413 5411 5409 5407 5405 5403 5402 5400 5397 5395 5393 5391 5389 5387 5385 5383 5381 5379 5377 5375
5437 5435 5433 5431 5430 5428 5426 5424 5423 5421 5420 5419 5417 5416 5414 5412 5411 5409 5408 5406 5405 5403 5402 5401 5399 5397 5396 5394 5392 5390 5389 5387 5385 5383 5381 5379 5377 5375 5373 5372 5370 5368 5366
5423 5421 5419 5418 5416 5414 5413 5411 5409 5408 5407 5405 5404 5403 5401 5400 5398 5397 5395 5394 5393 5392 5390 5389 5388 5386 5385 5383 5382 5380 5378 5376 5374 5373 5371 5369 5368 5366 5365 5363 5361 5360 5358
5410 5408 5406 5404 5402 5401 5399 5398 5396 5395 5394 5393 5391 5390 5389 5387 5386 5385 5383 5382 5381 5380 5379 5378 5377 5376 5374 5373 5371 5369 5368 5366 5365 5363 5362 5360 5359 5357 5356 5355 5353 5352 5350
5397 5395 5393 5391 5389 5388 5386 5385 5384 5382 5381 5380 5379 5378 5377 5376 5374 5373 5372 5371 5370 5369 5368 5368 5367 5366 5364 5363 5362 5360 5359 5357 5356 5354 5353 5352 5351 5349 5348 5346 5345 5344 5343
5384 5382 5380 5379 5377 5375 5374 5373 5372 5370 5370 5369 5367 5367 5366 5365 5363 5362 5361 5361 5360 5359 5358 5358 5357 5356 5355 5354 5352 5351 5350 5348 5347 5346 5345 5344 5343 5342 5340 5339 5338 5337 5336